Probability
0 0 0 0 0 0 0 0 0 0 0 0 0 0 0 0 0 0 0 0 3 3 3 3 3 3 3 0 0 0 0 0 0 0 0 0 0 0 0 0 0 0 0 0
0 0 0 0 0 0 0 0 0 0 0 0 0 0 0 0 0 0 0 0 0 3 3 3 3 3 3 0 0 0 0 0 0 0 0 0 0 0 0 0 0 0 0 0
0 0 0 0 0 0 0 0 0 0 0 0 0 0 0 0 0 0 0 0 0 0 0 3 3 3 3 3 0 0 0 0 0 0 0 0 0 0 0 0 0 0 0 0
0 0 0 0 0 0 0 0 0 0 0 0 0 0 0 0 0 0 0 0 0 0 0 0 0 0 0 0 0 0 0 0 0 0 0 0 0 0 0 0 0 0 0 0
0 0 0 0 0 0 0 0 0 0 0 0 0 0 0 0 0 0 0 0 0 0 0 0 0 0 0 0 0 0 0 0 0 0 0 0 0 0 0 0 0 0 0 0
0 0 0 0 0 0 0 0 0 0 0 0 0 0 0 0 0 0 0 0 0 0 0 0 0 0 0 0 0 0 0 0 0 0 0 0 0 0 0 0 0 0 0 0
0 0 0 0 0 0 0 0 0 0 0 0 0 0 0 0 0 0 0 0 0 0 0 0 0 0 0 0 0 0 0 0 0 0 0 0 0 0 0 0 0 0 0 0
0 0 0 0 0 0 0 0 0 0 0 0 0 0 0 0 0 0 0 0 0 0 0 0 0 0 0 0 0 0 0 0 0 0 0 0 0 0 0 0 0 0 0 0
0 0 0 0 0 0 0 0 0 0 0 0 0 0 0 0 0 0 0 0 0 0 0 0 0 0 0 0 0 0 0 0 0 0 0 0 0 0 0 0 0 0 0 0
0 0 0 0 0 0 0 0 0 0 0 0 0 0 0 0 0 0 0 0 0 0 0 0 0 0 0 0 0 0 0 0 0 0 0 0 0 0 0 0 0 0 0 0
0 0 0 0 0 0 0 0 0 0 0 0 0 0 0 0 0 0 0 0 0 0 0 0 0 0 0 0 0 0 0 0 0 0 0 0 0 0 0 0 0 0 0 0
0 0 0 0 0 0 0 0 0 0 0 0 0 0 0 0 0 0 0 0 0 0 0 0 0 0 0 0 0 0 0 0 0 0 0 0 0 0 0 0 0 0 0 0
0 0 0 0 0 0 0 0 0 0 0 0 0 0 0 0 0 0 0 0 0 0 0 0 0 0 0 0 0 0 0 0 0 0 0 0 0 0 0 0 0 0 0 0
0 0 0 0 0 0 0 0 0 0 0 0 0 0 0 0 0 0 0 0 0 0 0 0 0 0 0 0 0 0 0 0 0 0 0 0 0 0 0 0 0 0 0 0
0 0 0 0 0 0 0 0 0 0 0 0 0 0 0 0 0 0 0 0 0 0 0 0 0 0 0 0 0 0 0 0 0 0 0 0 0 0 0 0 0 0 0 0
0 0 0 0 0 0 0 0 0 0 0 0 0 0 0 0 0 0 0 0 0 0 0 0 0 0 0 0 0 0 0 0 0 0 0 0 0 0 0 0 0 0 0 0
0 0 0 0 0 0 0 0 0 0 0 0 0 0 0 0 0 0 0 0 0 0 0 0 0 0 0 0 0 0 0 0 0 0 0 0 0 0 0 0 0 0 0 0
0 0 0 0 0 0 0 0 0 0 0 0 0 0 0 0 0 0 0 0 0 0 0 0 0 0 0 0 0 0 0 0 0 0 0 0 0 0 0 0 0 0 0 0
0 0 0 0 0 0 0 0 0 0 0 0 0 0 0 0 0 0 0 0 0 0 0 0 0 0 0 0 0 0 0 0 0 0 0 0 0 0 0 0 0 0 0 0
0 0 0 0 0 0 0 0 0 0 0 0 0 0 0 0 0 0 0 0 0 0 0 0 0 0 0 0 0 0 0 0 0 0 0 0 0 0 0 0 0 0 0 0
0 0 0 0 0 0 0 0 0 0 0 0 0 0 0 0 0 0 0 0 0 0 0 0 0 0 0 0 0 0 0 0 0 0 0 0 0 0 0 0 0 0 0 0
0 0 0 0 0 0 0 0 0 0 0 0 0 0 0 0 0 0 0 0 0 0 0 0 0 0 0 0 0 0 0 0 0 0 0 0 0 0 0 0 0 0 0 0
0 0 0 0 0 0 0 0 0 0 0 0 0 0 0 0 0 0 0 0 0 0 0 0 0 0 0 0 0 0 0 0 0 0 0 0 0 0 0 0 0 0 0 0
0 0 0 0 0 0 0 0 0 0 0 0 0 0 0 0 0 0 0 0 0 0 0 0 0 0 0 0 0 0 0 0 0 0 0 0 0 0 0 0 0 0 0 0
0 0 0 0 0 0 0 0 0 0 0 0 0 0 0 0 0 0 0 0 0 0 0 0 0 0 0 0 0 0 0 0 0 0 0 0 0 0 0 0 0 0 0 0
0 0 0 0 0 0 0 0 0 0 0 0 0 0 0 0 0 0 0 0 0 0 0 0 0 0 0 0 0 0 0 0 0 0 0 0 0 0 0 0 0 0 0 0
0 0 0 0 0 0 0 0 0 0 0 0 0 0 0 0 0 0 0 0 0 0 0 0 0 0 0 0 0 0 0 0 0 0 0 0 0 0 0 0 0 0 0 0
Height
5829 5830 5831 5832 5833 5833 5834 5834 5835 5836 5836 5838 5838 5837 5837 5837 5837 5837 5837 5836 5836 5836 5836 5835 5835 5834 5834 5833 5833 5832 5832 5831 5831 5830 5830 5829 5829 5828 5827 5827 5826 5826 5825 5825
5823 5824 5825 5827 5828 5828 5829 5829 5830 5831 5832 5833 5833 5833 5833 5833 5833 5833 5833 5833 5833 5832 5832 5832 5832 5831 5831 5830 5830 5829 5829 5828 5828 5827 5827 5826 5826 5825 5825 5824 5824 5823 5823 5822
5818 5819 5819 5821 5823 5823 5824 5824 5825 5825 5827 5827 5828 5828 5828 5828 5828 5828 5828 5828 5828 5828 5828 5828 5828 5828 5827 5827 5826 5826 5825 5825 5824 5824 5824 5823 5823 5822 5822 5821 5821 5821 5820 5820
5811 5813 5813 5818 5817 5817 5818 5819 5819 5820 5820 5821 5822 5823 5823 5823 5823 5824 5824 5824 5824 5824 5824 5824 5824 5823 5823 5823 5822 5822 5821 5821 5821 5821 5820 5820 5819 5819 5819 5818 5818 5817 5817 5817
5803 5804 5806 5810 5810 5811 5811 5812 5813 5813 5814 5815 5816 5817 5817 5818 5818 5818 5818 5818 5819 5819 5819 5819 5819 5818 5818 5818 5818 5818 5817 5817 5817 5817 5816 5816 5815 5815 5815 5815 5814 5814 5813 5813
5796 5797 5799 5804 5804 5804 5805 5805 5807 5807 5808 5809 5809 5811 5812 5812 5812 5812 5812 5812 5813 5813 5813 5814 5814 5813 5814 5814 5813 5813 5813 5812 5812 5812 5812 5812 5811 5811 5811 5810 5810 5810 5809 5809
5789 5790 5792 5796 5797 5797 5799 5800 5800 5800 5801 5802 5803 5804 5805 5805 5805 5806 5806 5806 5807 5807 5807 5808 5808 5808 5808 5808 5808 5808 5808 5808 5807 5807 5807 5807 5807 5806 5806 5806 5805 5805 5805 5804
5782 5783 5788 5788 5789 5791 5792 5792 5792 5793 5794 5794 5795 5796 5797 5798 5798 5799 5799 5799 5800 5800 5801 5801 5802 5802 5802 5802 5802 5802 5802 5802 5802 5802 5802 5802 5801 5801 5801 5801 5800 5800 5799 5799
5775 5778 5780 5780 5781 5782 5783 5784 5785 5785 5786 5787 5787 5788 5789 5789 5790 5791 5792 5792 5793 5793 5794 5795 5795 5795 5796 5796 5796 5796 5796 5796 5796 5796 5796 5796 5796 5795 5795 5795 5795 5794 5794 5793
5766 5768 5771 5772 5773 5774 5775 5776 5777 5777 5778 5778 5779 5779 5780 5781 5782 5782 5783 5784 5785 5786 5786 5787 5787 5788 5788 5789 5789 5789 5789 5790 5790 5790 5789 5789 5789 5789 5789 5789 5789 5788 5787 5787
5757 5760 5761 5763 5765 5766 5767 5768 5768 5769 5769 5770 5770 5771 5771 5772 5772 5773 5774 5775 5776 5777 5778 5779 5779 5780 5780 5781 5781 5782 5782 5782 5782 5783 5782 5782 5782 5782 5782 5782 5781 5781 5781 5780
5749 5752 5753 5755 5756 5757 5758 5759 5759 5760 5760 5761 5761 5762 5763 5763 5763 5764 5765 5766 5767 5768 5769 5770 5771 5771 5772 5772 5773 5774 5774 5774 5774 5775 5775 5775 5775 5775 5774 5774 5774 5774 5773 5773
5740 5742 5743 5745 5747 5748 5748 5749 5750 5750 5751 5752 5752 5753 5753 5754 5754 5755 5755 5756 5757 5759 5760 5761 5762 5762 5763 5763 5764 5765 5765 5766 5766 5766 5766 5766 5766 5766 5766 5766 5766 5766 5765 5765
5730 5732 5733 5735 5736 5737 5738 5739 5740 5741 5741 5742 5743 5743 5744 5744 5745 5745 5746 5746 5747 5749 5750 5751 5752 5753 5754 5754 5754 5755 5756 5756 5756 5757 5757 5757 5758 5758 5758 5758 5758 5757 5757 5756
5720 5721 5723 5725 5726 5727 5728 5729 5730 5731 5732 5732 5733 5733 5734 5735 5735 5736 5736 5737 5737 5738 5740 5741 5742 5743 5743 5744 5745 5745 5746 5746 5746 5747 5747 5748 5748 5749 5749 5749 5748 5748 5748 5747
5709 5711 5712 5714 5716 5717 5718 5719 5721 5721 5722 5722 5723 5723 5724 5725 5726 5726 5727 5727 5727 5728 5729 5730 5732 5733 5733 5734 5734 5735 5735 5735 5736 5736 5737 5738 5738 5739 5739 5739 5739 5738 5738 5737
5699 5701 5703 5704 5706 5707 5708 5710 5711 5711 5712 5713 5713 5713 5714 5714 5715 5716 5717 5717 5717 5718 5719 5720 5721 5722 5723 5723 5724 5724 5725 5725 5725 5726 5727 5728 5728 5728 5728 5729 5728 5728 5728 5727
5690 5692 5693 5694 5696 5697 5698 5699 5700 5701 5702 5703 5703 5704 5704 5704 5705 5705 5706 5706 5707 5707 5708 5709 5710 5711 5712 5713 5713 5713 5714 5714 5715 5715 5716 5717 5717 5717 5717 5717 5717 5717 5716 5716
5681 5683 5684 5685 5686 5688 5689 5689 5690 5691 5692 5692 5693 5693 5694 5694 5694 5695 5695 5696 5696 5696 5697 5698 5698 5699 5701 5702 5702 5703 5703 5703 5704 5704 5705 5705 5706 5706 5706 5706 5706 5705 5705 5704
5673 5674 5675 5676 5677 5678 5680 5680 5681 5682 5682 5682 5683 5683 5683 5683 5683 5684 5684 5685 5685 5685 5686 5686 5687 5688 5689 5690 5691 5691 5692 5692 5692 5693 5693 5693 5694 5694 5694 5694 5694 5693 5693 5692
5666 5666 5667 5668 5669 5670 5671 5671 5672 5672 5672 5673 5673 5673 5673 5673 5673 5673 5673 5674 5674 5674 5674 5675 5675 5677 5678 5678 5679 5680 5680 5680 5681 5681 5681 5681 5681 5682 5682 5682 5681 5681 5680 5680
5658 5658 5659 5660 5661 5662 5662 5662 5662 5663 5663 5663 5663 5663 5663 5663 5663 5663 5663 5663 5662 5662 5662 5663 5664 5665 5666 5666 5667 5667 5668 5668 5669 5669 5669 5669 5669 5669 5669 5669 5669 5668 5668 5667
5650 5650 5651 5652 5653 5653 5653 5653 5653 5653 5653 5653 5653 5653 5652 5652 5652 5652 5652 5652 5651 5651 5651 5651 5652 5653 5653 5654 5655 5655 5655 5656 5656 5657 5657 5657 5656 5656 5656 5656 5656 5655 5655 5654
5641 5642 5642 5643 5643 5644 5644 5644 5644 5644 5644 5643 5643 5643 5642 5642 5642 5641 5641 5641 5640 5640 5640 5640 5640 5641 5641 5642 5643 5643 5643 5644 5644 5644 5643 5644 5643 5643 5643 5643 5642 5642 5641 5641
5633 5634 5634 5634 5635 5635 5635 5635 5635 5634 5634 5634 5633 5633 5632 5632 5632 5631 5630 5630 5629 5629 5629 5629 5629 5629 5630 5630 5631 5631 5631 5631 5631 5631 5631 5630 5631 5630 5630 5629 5629 5628 5628 5628
5624 5625 5626 5626 5626 5626 5626 5625 5625 5625 5624 5624 5624 5623 5623 5622 5621 5620 5620 5619 5619 5618 5618 5618 5618 5618 5618 5618 5618 5618 5619 5618 5618 5618 5618 5617 5617 5617 5616 5616 5615 5615 5615 5614
5615 5616 5616 5617 5617 5617 5616 5616 5616 5615 5615 5614 5614 5613 5613 5612 5611 5610 5610 5609 5609 5608 5607 5607 5607 5606 5606 5606 5606 5606 5606 5606 5605 5605 5605 5604 5604 5603 5603 5602 5602 5602 5601 5601
Wind_Speed
18 18 18 17 17 17 18 18 18 17 16 15 14 15 14 13 13 12 11 11 11 11 11 10 10 10 9 9 9 8 8 8 9 8 8 8 8 8 8 8 8 8 8 8
20 20 20 19 18 19 19 19 19 19 18 16 15 16 16 15 14 14 13 13 13 13 12 12 12 11 11 11 10 9 9 9 9 9 9 9 9 9 9 9 9 9 9 8
22 22 22 22 20 20 20 20 20 20 19 19 17 16 16 17 16 16 15 15 14 14 14 13 13 13 13 12 11 11 11 10 10 10 11 11 11 10 10 10 10 9 9 9
24 24 25 21 20 21 21 21 21 21 21 20 19 18 18 18 18 18 18 17 16 16 15 15 15 14 14 14 13 13 12 12 12 12 12 12 11 12 11 11 11 10 10 10
25 26 26 23 22 22 22 22 22 22 22 21 20 20 19 19 19 19 19 18 18 17 16 16 15 15 15 14 14 14 13 13 13 12 13 13 13 13 13 13 13 13 13 13
26 26 26 23 22 22 23 22 21 22 22 22 22 21 20 20 20 20 20 20 19 18 18 17 17 16 15 15 15 15 15 14 14 13 14 14 13 14 14 14 14 14 14 14
27 27 25 23 22 23 23 22 22 22 23 23 23 22 21 21 21 21 21 21 21 20 19 19 18 18 17 17 17 17 16 16 16 15 15 16 15 15 15 15 15 15 15 16
28 28 25 23 23 23 23 23 23 24 24 24 23 23 22 22 22 22 23 23 22 22 21 20 20 20 19 19 19 19 19 18 18 17 17 17 17 17 16 16 16 16 17 17
29 28 26 25 25 25 24 24 24 25 25 25 24 24 24 24 24 24 24 24 24 23 23 22 22 22 21 21 20 20 20 20 20 19 19 19 18 19 19 19 18 19 19 19
30 29 28 27 27 27 26 26 25 26 26 25 25 26 25 25 26 25 25 25 25 25 24 23 22 22 23 22 22 22 22 21 21 21 20 20 20 20 20 21 21 20 20 20
30 30 30 30 29 29 29 28 28 27 27 27 27 27 26 26 26 26 26 26 26 27 26 25 24 24 24 24 24 24 24 23 23 22 22 22 22 22 22 22 23 23 23 23
30 30 31 31 30 29 29 29 29 29 29 28 28 27 26 26 27 27 27 27 28 28 27 27 27 26 25 25 25 25 25 25 24 24 24 24 24 24 23 23 24 24 24 24
30 30 30 30 30 29 29 29 29 30 30 30 28 28 28 28 28 28 28 28 29 29 29 29 28 27 26 25 25 26 26 26 26 26 26 26 25 25 25 25 25 25 26 26
32 32 32 32 31 30 30 30 30 30 30 30 29 29 30 29 29 29 29 29 30 30 29 29 28 27 27 27 27 27 28 28 28 28 28 27 26 27 27 27 27 27 27 28
32 32 32 32 33 32 32 31 31 31 31 30 30 30 30 30 30 29 29 30 30 30 30 30 29 29 29 29 29 29 29 29 29 30 29 28 28 28 28 28 29 29 29 30
31 32 32 31 31 31 31 31 31 30 31 31 31 31 31 30 30 30 30 30 30 30 30 31 31 30 30 30 30 30 30 30 30 30 29 29 29 29 30 30 30 31 31 31
30 31 31 31 31 31 30 30 30 30 31 31 31 31 31 31 30 30 30 31 31 31 31 31 31 31 31 31 31 31 31 30 31 31 31 31 31 31 31 31 31 31 31 31
28 28 29 29 29 29 29 29 29 29 30 30 30 31 31 31 31 31 31 31 31 31 31 32 32 32 32 31 31 31 31 31 31 31 32 33 32 33 33 33 32 32 32 33
25 26 27 27 28 29 29 29 29 29 30 30 30 31 31 32 32 32 32 32 32 32 32 33 33 33 33 32 32 32 32 32 32 32 32 33 34 34 34 34 34 34 34 34
24 25 26 26 27 27 27 28 29 29 30 30 30 30 31 31 32 32 32 32 32 33 33 34 34 33 33 33 33 33 33 34 33 33 33 33 34 34 34 34 34 34 35 35
24 25 26 26 27 27 27 27 28 28 29 29 29 30 30 30 31 32 32 33 33 33 34 34 34 34 34 34 34 35 35 35 34 34 34 34 34 35 35 35 36 36 35 35
25 25 26 26 26 26 27 27 27 27 28 28 29 29 30 30 31 32 32 33 33 33 34 35 35 35 35 35 35 35 35 35 35 35 35 35 35 36 36 37 37 37 36 36
25 25 25 25 25 26 26 26 26 27 28 28 28 30 30 30 30 31 31 31 32 33 33 34 34 35 36 36 36 36 36 35 35 36 36 36 36 36 37 37 37 37 37 37
25 24 24 25 24 25 26 26 27 28 28 29 29 29 30 30 30 30 31 32 32 32 33 34 35 35 35 35 36 37 36 36 36 36 36 36 36 36 36 36 37 38 38 37
25 24 24 25 25 25 26 27 28 28 28 28 29 29 29 29 30 30 30 31 31 31 32 33 34 35 36 36 37 37 37 36 36 36 36 37 37 37 37 37 38 38 38 38
26 26 26 26 27 27 28 28 27 27 27 27 28 28 29 29 30 30 30 30 30 30 31 32 33 34 35 36 37 37 36 35 36 36 36 37 38 38 38 38 37 37 38 38
26 26 27 26 27 27 28 28 28 28 27 27 27 28 29 30 30 30 30 30 30 30 30 31 32 33 34 34 35 35 36 37 37 37 36 37 38 39 39 38 38 38 38 38
Wind_Direction
252 255 257 256 255 257 260 260 259 261 265 268 270 274 276 278 279 280 279 280 281 282 285 288 288 287 287 287 285 283 280 279 280 281 284 285 286 286 286 285 284 281 280 281
252 255 256 253 254 258 260 260 260 261 263 265 266 268 270 270 271 273 274 277 278 280 280 282 283 282 281 282 282 279 276 277 278 278 281 284 284 283 283 281 280 279 279 277
251 253 255 254 256 259 262 262 261 262 264 264 264 265 267 266 267 268 269 274 275 278 279 279 280 280 278 279 279 277 278 277 276 277 278 280 280 280 280 280 279 275 273 273
253 253 253 256 257 259 261 261 262 263 262 262 263 264 264 264 264 266 268 270 272 274 275 276 278 277 276 277 276 275 275 273 273 274 276 273 274 275 276 276 275 274 272 271
255 256 256 256 256 258 261 262 261 261 261 261 261 262 261 261 262 263 265 267 268 271 273 273 275 276 275 274 274 274 274 271 271 271 271 271 271 271 272 273 274 273 272 271
255 257 257 259 259 259 260 261 262 262 262 263 262 264 262 261 262 263 265 266 267 268 271 271 272 273 273 273 273 273 272 270 271 270 269 269 270 270 271 272 274 274 271 270
254 256 259 259 258 260 260 264 263 263 263 263 263 264 263 261 260 261 263 265 266 265 267 268 269 270 271 272 273 272 271 269 269 270 269 271 272 271 269 271 274 275 273 272
254 256 258 258 259 260 263 263 263 263 264 265 266 264 263 261 258 258 261 263 265 265 265 266 267 268 269 269 270 271 271 269 268 268 268 269 270 270 271 271 273 276 278 277
253 255 256 257 258 260 262 263 265 266 267 267 267 267 265 263 260 258 258 260 262 263 264 265 267 267 267 268 270 270 269 269 268 267 267 266 266 268 270 272 272 275 277 278
251 253 255 257 258 260 261 263 265 267 268 268 267 267 267 266 262 260 258 258 259 260 262 264 266 266 266 265 267 268 268 268 268 267 266 265 265 267 269 271 272 273 276 277
252 253 254 257 260 260 261 263 264 267 267 268 267 268 268 267 266 263 261 259 260 260 260 262 264 266 267 265 265 266 268 268 267 266 266 266 267 267 267 269 270 272 274 276
253 253 254 256 257 260 262 263 264 265 265 266 267 266 266 267 267 265 263 262 261 260 261 262 263 266 267 266 264 265 267 267 266 266 265 265 266 267 269 269 270 271 273 275
253 254 255 256 256 258 260 262 263 263 264 265 266 266 266 266 266 264 263 263 261 261 261 262 263 263 265 266 266 265 266 266 264 265 266 265 266 267 269 270 270 270 271 272
255 256 257 258 257 258 259 261 262 262 263 263 264 264 265 265 265 265 264 263 262 261 261 262 262 263 264 266 267 267 266 265 265 265 267 266 265 265 267 269 269 269 270 272
255 257 259 259 259 258 258 259 261 262 263 263 264 264 263 264 264 263 263 263 262 262 262 261 261 263 265 266 267 267 266 266 266 264 264 264 263 263 265 267 269 269 270 273
255 256 258 259 259 259 260 262 263 263 263 263 264 264 264 263 263 263 263 263 263 263 263 262 262 263 264 264 265 266 266 265 263 263 263 264 265 266 267 269 269 270 270 272
256 256 256 257 257 258 260 262 262 261 261 262 263 264 265 264 263 263 264 265 265 264 263 263 262 262 262 264 265 265 266 266 263 261 261 264 266 267 268 269 270 271 271 271
257 257 257 257 256 256 258 260 261 262 262 262 263 264 265 265 263 263 264 265 265 264 263 263 262 261 262 264 265 265 266 267 265 263 261 263 266 267 268 269 270 272 272 272
256 257 257 257 256 257 258 259 260 262 263 264 264 265 266 265 265 264 265 265 265 264 263 263 262 261 262 263 264 265 266 266 266 265 264 264 266 267 268 270 271 271 272 273
259 259 259 258 258 259 259 260 261 264 264 265 264 266 267 267 266 266 266 266 265 264 263 263 262 260 261 262 263 264 265 266 266 265 266 265 265 266 268 270 271 272 272 273
257 258 259 259 259 260 262 263 264 265 265 266 266 267 267 268 267 267 268 268 267 266 264 262 261 259 261 262 263 265 266 266 265 265 265 267 266 266 268 269 271 272 273 274
258 259 260 261 261 262 264 265 266 267 267 267 267 268 270 270 269 268 269 269 268 267 266 264 262 260 261 263 264 265 266 266 264 264 266 268 268 268 269 269 270 271 273 274
259 261 262 263 263 264 265 267 269 270 271 272 271 270 270 269 269 269 270 270 269 268 266 264 263 261 261 263 264 265 265 265 265 266 268 268 269 270 270 269 270 271 272 273
259 263 264 264 265 265 268 271 272 272 272 272 273 273 272 270 270 271 271 270 270 269 267 265 263 262 262 263 264 265 266 265 266 269 269 268 269 270 270 270 271 272 272 273
260 262 264 266 267 269 271 273 273 273 272 272 273 273 273 273 272 271 271 271 270 269 268 266 264 263 264 265 266 266 266 266 268 270 270 270 269 270 271 271 272 272 271 272
261 263 265 266 268 271 273 274 274 274 274 274 274 273 274 275 275 274 272 271 271 271 271 269 267 266 267 267 267 267 267 268 270 270 271 271 271 272 273 272 272 272 272 273
262 263 264 266 269 272 273 274 275 275 275 276 274 273 274 275 275 274 274 273 273 273 273 272 270 269 269 268 267 267 268 269 270 270 271 272 272 273 274 273 272 272 273 273